Evansville, IN

2:23 PM CDT on September 22, 2019 (GMT -0500)
Evansville Regional

Weather History for KEVV - July, 2019

Change the Weather History Date:

Tuesday, July 16, 2019

  Actual Average Record
Temperature  
Mean Temperature 79 °F 78 °F  
Max Temperature 84 °F 89 °F 100 °F (1980)
Min Temperature 74 °F 68 °F 47 °F (1930)
Degree Days  
Heating Degree Days 0 0  
Month to date heating degree days 0 0  
Since 1 June heating degree days 4 6  
Since 1 July heating degree days 0 0  
Cooling Degree Days 14 13  
Month to date cooling degree days 241 208  
Year to date cooling degree days 693 641  
Since 1 June cooling degree days 505 506  
Growing Degree Days 28 (Base 50)    
Moisture  
Dew Point 71 °F    
Average Humidity 78    
Maximum Humidity 87    
Minimum Humidity 69    
Precipitation  
Precipitation 0.66 in 0.14 in 1.63 in (1903)
Month to date precipitation 1.08 2.12  
Year to date precipitation 38.36 26.14  
Snow  
Snow 0.00 in 0.00 in T in (1949)
Month to date snowfall 0.0 0.0  
Since 1 June snowfall 0.0 0.0  
Since 1 July snowfall 0.0 0.0  
Snow Depth 0.00 in    
Sea Level Pressure  
Sea Level Pressure 29.95 in    
Wind  
Wind Speed 11 mph (South)    
Max Wind Speed 26 mph    
Max Gust Speed 36 mph    
Visibility 8 miles    
Events Rain , Thunderstorm    
T = Trace of Precipitation, MM = Missing Value Source: NWS Daily Summary

Daily Weather History Graph

Daily Weather History Graph

Search for Another Location

Airport or City:

Astronomy

Jul. 16, 2019 Rise Set
Actual Time 5:40 AM CDT 8:11 PM CDT
Civil Twilight 5:09 AM CDT 8:42 PM CDT
Nautical Twilight 4:31 AM CDT 9:20 PM CDT
Astronomical Twilight 3:49 AM CDT 10:02 PM CDT
Moon 8:17 PM CDT (7/16) 5:18 AM CDT (7/16)
Length of Visible Light 15h 32m
Length of Day
14h 31m
Full, 100% of the Moon is Illuminated
Jul 16
Full
Jul 16
Full
Jul 24
Last Quarter
Jul 31
New
Aug 7
First Quarter

Hourly Weather History & Observations

Time (CDT) Temp. Heat Index Dew Point Humidity Pressure Visibility Wind Dir Wind Speed Gust Speed Precip Events Conditions
12:54 AM 75.9 °F - 68.0 °F 76% 29.99 in 10.0 mi SSE 6.9 mph - N/A   Mostly Cloudy
1:54 AM 75.0 °F - 68.0 °F 79% 29.98 in 10.0 mi SSE 5.8 mph - N/A   Scattered Clouds
2:54 AM 75.0 °F - 68.0 °F 79% 29.96 in 10.0 mi SE 5.8 mph - N/A   Mostly Cloudy
3:54 AM 75.0 °F - 69.1 °F 82% 29.96 in 10.0 mi SSE 8.1 mph - N/A   Overcast
4:40 AM 73.9 °F - 69.1 °F 85% 29.97 in 10.0 mi SSE 9.2 mph - 0.00 in   Overcast
4:51 AM 73.4 °F - 69.8 °F 88% 29.97 in 10.0 mi SSE 6.9 mph - 0.00 in   Mostly Cloudy
4:54 AM 73.9 °F - 69.1 °F 85% 29.96 in 10.0 mi South 6.9 mph - 0.00 in   Mostly Cloudy
5:54 AM 75.0 °F - 70.0 °F 84% 29.97 in 10.0 mi SSE 6.9 mph - 0.00 in   Overcast
6:54 AM 75.0 °F - 70.0 °F 84% 29.98 in 10.0 mi SSE 6.9 mph - 0.00 in   Mostly Cloudy
7:09 AM 75.0 °F - 70.0 °F 84% 30.00 in 10.0 mi South 6.9 mph - N/A   Overcast
7:16 AM 75.9 °F - 71.1 °F 85% 30.00 in 10.0 mi South 6.9 mph - N/A   Overcast
7:54 AM 75.9 °F - 71.1 °F 85% 29.98 in 10.0 mi SSE 8.1 mph - N/A   Mostly Cloudy
8:54 AM 78.1 °F - 71.1 °F 79% 29.98 in 10.0 mi South 11.5 mph 21.9 mph N/A   Mostly Cloudy
9:54 AM 80.1 °F 84.2 °F 73.0 °F 79% 29.97 in 10.0 mi South 12.7 mph - N/A   Overcast
10:54 AM 82.0 °F 87.4 °F 73.0 °F 74% 29.97 in 10.0 mi South 17.3 mph 27.6 mph N/A   Overcast
11:41 AM 77.0 °F - 72.0 °F 84% 29.99 in 5.0 mi South 12.7 mph - 0.02 in Rain Rain
11:54 AM 77.0 °F - 73.0 °F 88% 29.97 in 8.0 mi South 8.1 mph - 0.05 in Rain Light Rain
12:54 PM 78.1 °F - 72.0 °F 81% 29.95 in 4.0 mi South 17.3 mph 33.4 mph 0.00 in Rain Light Rain
12:56 PM 77.0 °F - 72.0 °F 84% 29.96 in 2.0 mi South 11.5 mph 33.4 mph 0.00 in Rain Heavy Rain
1:01 PM 75.0 °F - 72.0 °F 90% 29.96 in 1.2 mi South 11.5 mph 27.6 mph 0.07 in Rain Heavy Rain
1:03 PM 75.0 °F - 72.0 °F 90% 29.96 in 1.5 mi South 12.7 mph 23.0 mph 0.08 in Rain Heavy Rain
1:06 PM 75.9 °F - 73.0 °F 91% 29.96 in 3.0 mi South 13.8 mph 23.0 mph 0.08 in Rain Light Rain
1:54 PM 81.0 °F 86.2 °F 73.9 °F 79% 29.94 in 10.0 mi South 11.5 mph 19.6 mph 0.08 in   Mostly Cloudy
2:34 PM 84.0 °F 90.2 °F 73.0 °F 69% 29.93 in 10.0 mi South 17.3 mph 24.2 mph N/A   Scattered Clouds
2:54 PM 81.0 °F 85.8 °F 73.0 °F 77% 29.93 in 7.0 mi South 12.7 mph - 0.00 in Rain , Thunderstorm Light Thunderstorms and Rain
3:04 PM 75.0 °F - 72.0 °F 90% 29.94 in 0.8 mi SW 19.6 mph 36.8 mph 0.03 in Rain , Thunderstorm Heavy Rain
3:15 PM 75.0 °F - 72.0 °F 90% 29.93 in 1.0 mi SSW 15.0 mph 32.2 mph 0.36 in Rain Rain
3:18 PM 75.9 °F - 73.0 °F 91% 29.93 in 3.0 mi South 12.7 mph 24.2 mph 0.36 in Rain Light Rain
3:28 PM 75.9 °F - 73.0 °F 91% 29.93 in 7.0 mi South 12.7 mph - 0.38 in Rain Light Rain
3:54 PM 80.1 °F 84.5 °F 73.9 °F 81% 29.91 in 10.0 mi South 10.4 mph 21.9 mph 0.38 in   Mostly Cloudy
4:36 PM 82.0 °F 87.4 °F 73.0 °F 74% 29.91 in 10.0 mi South 15.0 mph 29.9 mph N/A   Mostly Cloudy
4:54 PM 81.0 °F 85.8 °F 73.0 °F 77% 29.89 in 10.0 mi South 16.1 mph 25.3 mph N/A   Mostly Cloudy
5:54 PM 82.0 °F 86.7 °F 72.0 °F 71% 29.88 in 10.0 mi South 16.1 mph - N/A   Mostly Cloudy
6:54 PM 80.1 °F 83.6 °F 71.1 °F 74% 29.89 in 10.0 mi SSW 10.4 mph 20.7 mph N/A   Mostly Cloudy
7:01 PM 80.1 °F 83.6 °F 71.1 °F 74% 29.90 in 10.0 mi South 12.7 mph 20.7 mph N/A   Partly Cloudy
7:47 PM 79.0 °F - 71.1 °F 77% 29.91 in 10.0 mi South 13.8 mph 20.7 mph N/A   Overcast
7:54 PM 79.0 °F - 70.0 °F 74% 29.90 in 10.0 mi SSW 16.1 mph 21.9 mph N/A   Mostly Cloudy
8:11 PM 78.1 °F - 70.0 °F 76% 29.92 in 10.0 mi SSW 13.8 mph 21.9 mph N/A   Overcast
8:39 PM 75.0 °F - 72.0 °F 90% 29.93 in 3.0 mi SW 13.8 mph 24.2 mph 0.06 in Rain Heavy Rain
8:49 PM 73.4 °F - 71.6 °F 94% 29.93 in 3.0 mi SW 10.4 mph - 0.11 in Rain Heavy Rain
8:54 PM 75.0 °F - 72.0 °F 90% 29.92 in 3.0 mi SSW 8.1 mph - 0.12 in Rain Rain
9:54 PM 75.0 °F - 71.1 °F 87% 29.94 in 10.0 mi South 9.2 mph - 0.02 in   Overcast
10:09 PM 75.9 °F - 71.1 °F 85% 29.94 in 10.0 mi SSW 9.2 mph - N/A   Overcast
10:26 PM 75.0 °F - 71.1 °F 87% 29.94 in 6.0 mi SSW 10.4 mph - 0.00 in Rain Light Rain
10:33 PM 75.0 °F - 72.0 °F 90% 29.94 in 8.0 mi SSW 9.2 mph - 0.01 in Rain Light Rain
10:54 PM 75.0 °F - 71.1 °F 87% 29.93 in 10.0 mi SSW 9.2 mph - 0.01 in   Overcast
11:54 PM 75.0 °F - 71.1 °F 87% 29.93 in 10.0 mi SSW 12.7 mph - N/A   Overcast